User: anonymous   Login
Location: Deer Lodge Site
(39.6809°N, 119.9392°W)
Time: 17:13:30
(UTC-07:00)
Language:

CZ-4C R/B - Orbit

View from above orbital plane
View from above orbital plane
View from above satellite
View from above satellite

Ground track
Ground track

The orbit data is extracted from the following two-line orbital elements,

1 36416U 10009D   16183.20351692 -.00000095  00000-0  95794-6 0  9992
2 36416  63.4426 124.9897 0352633 357.3168   2.5970 13.69498401316303
Epoch (UTC): 01 July 2016 04:53:03
Eccentricity: 0.0352633
inclination: 63.4426°
perigee height: 741 km
apogee height: 1261 km
right ascension of ascending node: 124.9897°
argument of perigee: 357.3168°
revolutions per day: 13.69498401
mean anomaly at epoch: 2.5970°
orbit number at epoch: 31630

The dashed part of the orbit path shows where the satellite is in the earth's shadow,  

DLR